GEFSGL_prec_meanprecacc_162.txt.gz
Total_Precipitation_Accumulation
0.79 0.81 0.81 0.85 0.91 0.94 0.90 0.83 0.79 0.76 0.73 0.72 0.66 0.62 0.61 0.61 0.61 0.63 0.60 0.57 0.55 0.55 0.54 0.55 0.59 0.58 0.61 0.61 0.65 0.75 0.90 1.02 1.13 0.97 0.85 0.89 0.94 0.90 0.91 0.88 0.84 0.83 0.95
0.64 0.66 0.68 0.68 0.67 0.70 0.73 0.72 0.68 0.66 0.65 0.63 0.57 0.52 0.50 0.47 0.46 0.43 0.41 0.40 0.43 0.44 0.46 0.50 0.52 0.53 0.54 0.56 0.60 0.69 0.81 0.97 1.13 1.11 0.96 0.96 0.97 0.96 1.02 1.02 0.89 0.80 0.86
0.59 0.59 0.58 0.58 0.57 0.58 0.58 0.58 0.56 0.56 0.56 0.54 0.50 0.47 0.43 0.42 0.39 0.35 0.35 0.36 0.38 0.40 0.43 0.48 0.52 0.59 0.61 0.62 0.67 0.71 0.78 0.86 1.04 1.12 1.05 1.06 1.11 1.14 1.25 1.17 1.02 0.98 0.82
0.58 0.56 0.54 0.57 0.56 0.54 0.52 0.51 0.50 0.50 0.53 0.55 0.54 0.45 0.36 0.32 0.32 0.30 0.29 0.31 0.34 0.36 0.41 0.47 0.53 0.62 0.69 0.72 0.72 0.75 0.80 0.88 0.97 1.09 1.11 1.15 1.21 1.28 1.32 1.30 1.13 1.00 0.88
0.57 0.56 0.58 0.60 0.60 0.59 0.59 0.58 0.56 0.54 0.50 0.49 0.49 0.47 0.40 0.32 0.29 0.27 0.26 0.29 0.35 0.41 0.43 0.45 0.49 0.59 0.67 0.65 0.62 0.65 0.77 0.95 1.00 1.11 1.15 1.14 1.12 1.23 1.25 1.10 1.01 0.92 0.82
0.68 0.68 0.66 0.63 0.60 0.60 0.59 0.59 0.60 0.58 0.54 0.48 0.45 0.45 0.42 0.31 0.31 0.29 0.26 0.31 0.39 0.45 0.48 0.48 0.46 0.49 0.48 0.49 0.55 0.61 0.70 0.90 1.18 1.33 1.24 1.17 1.06 1.04 1.07 1.03 1.02 0.98 0.93
0.83 0.77 0.70 0.62 0.59 0.57 0.52 0.55 0.59 0.57 0.52 0.47 0.42 0.43 0.41 0.34 0.31 0.29 0.29 0.33 0.43 0.49 0.52 0.52 0.43 0.38 0.46 0.51 0.55 0.59 0.70 0.83 1.07 1.37 1.44 1.20 1.11 1.05 1.08 1.10 1.13 1.14 1.05
0.83 0.76 0.65 0.57 0.56 0.56 0.56 0.57 0.55 0.52 0.49 0.48 0.46 0.45 0.43 0.34 0.30 0.29 0.30 0.35 0.44 0.48 0.49 0.50 0.52 0.51 0.48 0.50 0.54 0.65 0.80 0.91 1.00 1.07 1.34 1.17 0.95 0.93 0.98 0.99 1.05 1.07 1.00
0.82 0.68 0.55 0.48 0.49 0.51 0.51 0.50 0.49 0.49 0.47 0.43 0.39 0.41 0.43 0.39 0.32 0.30 0.29 0.36 0.43 0.45 0.44 0.43 0.41 0.44 0.47 0.57 0.71 0.92 1.05 1.17 1.12 1.23 1.37 1.31 1.15 1.05 0.92 0.91 1.06 1.08 1.04
0.65 0.54 0.48 0.44 0.41 0.39 0.39 0.43 0.44 0.45 0.42 0.36 0.32 0.34 0.36 0.34 0.24 0.22 0.25 0.33 0.40 0.43 0.46 0.47 0.41 0.38 0.48 0.63 0.87 1.13 1.25 1.32 1.19 1.28 1.50 1.54 1.36 1.31 1.24 1.10 1.13 1.09 1.04
0.49 0.44 0.44 0.39 0.32 0.29 0.34 0.39 0.40 0.36 0.36 0.35 0.35 0.32 0.28 0.21 0.18 0.17 0.18 0.23 0.31 0.41 0.47 0.55 0.54 0.47 0.55 0.73 0.93 1.11 1.25 1.29 1.31 1.35 1.35 1.35 1.42 1.41 1.31 1.20 1.11 1.03 0.97
0.41 0.39 0.37 0.31 0.19 0.19 0.29 0.32 0.31 0.34 0.33 0.31 0.32 0.30 0.25 0.22 0.15 0.13 0.15 0.15 0.18 0.35 0.52 0.55 0.57 0.54 0.59 0.79 0.94 1.15 1.34 1.43 1.41 1.39 1.22 1.14 1.09 1.08 1.08 0.98 0.87 0.80 0.78
0.39 0.40 0.36 0.29 0.23 0.20 0.23 0.26 0.26 0.28 0.25 0.22 0.24 0.25 0.23 0.23 0.17 0.10 0.11 0.12 0.14 0.26 0.41 0.47 0.52 0.56 0.72 1.03 1.18 1.33 1.46 1.55 1.55 1.38 1.17 1.06 0.91 0.81 0.79 0.82 0.78 0.71 0.64
0.42 0.40 0.38 0.36 0.29 0.21 0.20 0.16 0.17 0.20 0.21 0.21 0.22 0.23 0.24 0.23 0.17 0.13 0.15 0.17 0.18 0.25 0.39 0.52 0.62 0.69 0.88 1.18 1.38 1.55 1.59 1.48 1.30 1.19 1.07 0.99 0.84 0.74 0.72 0.66 0.64 0.63 0.65
0.36 0.30 0.27 0.25 0.23 0.22 0.18 0.10 0.09 0.10 0.09 0.13 0.16 0.16 0.18 0.18 0.12 0.13 0.15 0.16 0.18 0.22 0.35 0.54 0.71 0.83 1.03 1.23 1.39 1.46 1.43 1.32 1.20 1.01 0.91 0.92 0.89 0.79 0.73 0.62 0.55 0.51 0.57
0.29 0.23 0.18 0.14 0.14 0.14 0.18 0.14 0.06 0.04 0.04 0.04 0.05 0.06 0.08 0.09 0.09 0.11 0.14 0.16 0.20 0.25 0.36 0.56 0.68 0.78 0.96 1.18 1.30 1.27 1.18 1.11 1.01 0.88 0.81 0.77 0.77 0.73 0.69 0.59 0.50 0.49 0.55
0.26 0.19 0.12 0.09 0.10 0.11 0.17 0.23 0.20 0.11 0.06 0.05 0.04 0.04 0.05 0.06 0.08 0.10 0.13 0.18 0.20 0.26 0.36 0.54 0.64 0.75 0.91 1.06 1.13 1.11 1.07 0.98 0.88 0.81 0.76 0.69 0.63 0.59 0.54 0.48 0.44 0.46 0.46
0.14 0.09 0.07 0.10 0.09 0.10 0.13 0.15 0.17 0.21 0.23 0.20 0.10 0.05 0.05 0.07 0.09 0.10 0.13 0.18 0.22 0.26 0.39 0.54 0.64 0.71 0.79 0.86 0.93 0.98 0.99 0.91 0.80 0.74 0.74 0.69 0.62 0.54 0.46 0.42 0.40 0.36 0.36
0.08 0.10 0.09 0.08 0.08 0.08 0.09 0.11 0.12 0.15 0.19 0.20 0.17 0.11 0.08 0.11 0.14 0.17 0.18 0.22 0.28 0.35 0.44 0.55 0.62 0.67 0.69 0.69 0.75 0.81 0.84 0.82 0.74 0.69 0.67 0.65 0.58 0.51 0.41 0.33 0.28 0.18 0.21
0.05 0.02 0.04 0.05 0.04 0.05 0.06 0.08 0.09 0.11 0.15 0.18 0.19 0.16 0.16 0.23 0.29 0.30 0.26 0.24 0.28 0.35 0.43 0.50 0.55 0.59 0.57 0.57 0.58 0.62 0.65 0.65 0.62 0.59 0.56 0.54 0.47 0.37 0.31 0.25 0.21 0.21 0.23
0.04 0.01 0.01 0.02 0.04 0.04 0.04 0.05 0.07 0.09 0.14 0.18 0.17 0.14 0.21 0.28 0.34 0.35 0.33 0.32 0.33 0.37 0.40 0.42 0.44 0.46 0.45 0.44 0.44 0.45 0.49 0.53 0.54 0.55 0.52 0.47 0.37 0.30 0.24 0.19 0.16 0.14 0.14
0.01 0.01 0.02 0.02 0.02 0.02 0.02 0.03 0.05 0.07 0.10 0.13 0.15 0.15 0.23 0.26 0.30 0.34 0.37 0.38 0.39 0.38 0.37 0.36 0.37 0.38 0.37 0.37 0.36 0.36 0.39 0.42 0.48 0.52 0.52 0.45 0.34 0.26 0.20 0.15 0.13 0.12 0.11
0.01 0.01 0.01 0.01 0.01 0.01 0.01 0.02 0.04 0.06 0.07 0.09 0.11 0.15 0.20 0.27 0.33 0.37 0.39 0.38 0.38 0.37 0.33 0.30 0.32 0.34 0.33 0.30 0.29 0.31 0.33 0.37 0.42 0.49 0.51 0.45 0.32 0.23 0.18 0.16 0.14 0.13 0.09
0.00 0.01 0.01 0.01 0.01 0.01 0.01 0.02 0.02 0.03 0.05 0.07 0.10 0.14 0.18 0.26 0.33 0.40 0.44 0.41 0.39 0.38 0.35 0.33 0.33 0.32 0.27 0.23 0.21 0.20 0.21 0.26 0.35 0.43 0.44 0.41 0.31 0.22 0.15 0.13 0.12 0.10 0.09
0.01 0.01 0.01 0.01 0.01 0.01 0.01 0.01 0.01 0.02 0.03 0.04 0.06 0.09 0.12 0.16 0.22 0.31 0.39 0.43 0.43 0.43 0.40 0.37 0.37 0.33 0.26 0.19 0.15 0.13 0.17 0.24 0.30 0.33 0.37 0.35 0.26 0.20 0.16 0.14 0.11 0.08 0.07
0.01 0.01 0.01 0.01 0.01 0.01 0.01 0.01 0.01 0.01 0.02 0.02 0.04 0.04 0.06 0.09 0.13 0.19 0.26 0.33 0.38 0.42 0.46 0.49 0.47 0.36 0.26 0.20 0.18 0.18 0.19 0.19 0.20 0.20 0.26 0.28 0.21 0.17 0.16 0.14 0.08 0.05 0.06

GEFSGL_prec_meanprecacc_168.txt.gz
Total_Precipitation_Accumulation
0.84 0.86 0.85 0.87 0.92 0.95 0.91 0.84 0.80 0.76 0.74 0.72 0.67 0.63 0.62 0.63 0.63 0.64 0.60 0.58 0.56 0.56 0.56 0.57 0.61 0.60 0.64 0.64 0.67 0.78 0.93 1.06 1.16 1.00 0.88 0.91 0.96 0.92 0.93 0.90 0.85 0.85 0.96
0.68 0.70 0.71 0.70 0.69 0.70 0.73 0.72 0.68 0.67 0.66 0.64 0.58 0.53 0.50 0.48 0.46 0.44 0.41 0.41 0.44 0.46 0.48 0.51 0.54 0.56 0.57 0.58 0.62 0.70 0.84 1.00 1.17 1.14 0.98 0.99 1.00 0.98 1.04 1.03 0.91 0.81 0.87
0.62 0.62 0.60 0.60 0.58 0.58 0.59 0.58 0.56 0.56 0.57 0.54 0.51 0.49 0.43 0.42 0.39 0.36 0.36 0.37 0.39 0.40 0.44 0.49 0.54 0.61 0.63 0.63 0.68 0.72 0.79 0.88 1.07 1.16 1.08 1.08 1.14 1.16 1.27 1.18 1.03 0.99 0.82
0.60 0.59 0.56 0.58 0.57 0.55 0.52 0.51 0.50 0.50 0.53 0.55 0.54 0.45 0.36 0.32 0.32 0.31 0.30 0.32 0.34 0.36 0.41 0.49 0.55 0.64 0.70 0.72 0.72 0.76 0.81 0.90 1.00 1.13 1.16 1.18 1.23 1.30 1.35 1.32 1.16 1.02 0.90
0.60 0.58 0.59 0.61 0.61 0.60 0.60 0.58 0.57 0.54 0.50 0.49 0.49 0.47 0.40 0.32 0.29 0.28 0.28 0.30 0.36 0.42 0.44 0.46 0.50 0.60 0.69 0.66 0.63 0.65 0.78 0.96 1.02 1.14 1.18 1.17 1.15 1.25 1.27 1.12 1.04 0.95 0.85
0.72 0.70 0.68 0.65 0.61 0.61 0.60 0.59 0.60 0.58 0.55 0.48 0.46 0.45 0.42 0.32 0.31 0.30 0.28 0.33 0.40 0.46 0.49 0.49 0.47 0.49 0.49 0.50 0.56 0.62 0.71 0.92 1.20 1.35 1.27 1.20 1.08 1.07 1.08 1.04 1.05 1.02 0.96
0.88 0.82 0.73 0.65 0.62 0.58 0.53 0.56 0.60 0.58 0.53 0.47 0.43 0.44 0.42 0.36 0.32 0.30 0.31 0.35 0.44 0.51 0.53 0.53 0.44 0.39 0.46 0.52 0.55 0.60 0.71 0.84 1.08 1.39 1.46 1.22 1.13 1.08 1.10 1.12 1.16 1.19 1.09
0.87 0.80 0.70 0.60 0.58 0.58 0.58 0.59 0.57 0.53 0.50 0.50 0.48 0.47 0.44 0.35 0.31 0.31 0.31 0.36 0.46 0.49 0.50 0.51 0.53 0.52 0.49 0.51 0.55 0.66 0.80 0.92 1.01 1.08 1.36 1.19 0.98 0.95 1.00 1.02 1.09 1.13 1.06
0.85 0.71 0.58 0.51 0.51 0.52 0.52 0.52 0.51 0.50 0.49 0.45 0.41 0.42 0.44 0.40 0.33 0.31 0.29 0.37 0.44 0.46 0.45 0.44 0.42 0.45 0.49 0.59 0.72 0.93 1.06 1.18 1.13 1.25 1.40 1.34 1.19 1.08 0.94 0.93 1.10 1.12 1.09
0.66 0.55 0.49 0.45 0.42 0.40 0.40 0.44 0.45 0.46 0.43 0.37 0.33 0.35 0.36 0.34 0.25 0.22 0.25 0.33 0.40 0.44 0.47 0.49 0.43 0.40 0.50 0.66 0.89 1.15 1.27 1.35 1.22 1.31 1.53 1.56 1.39 1.33 1.27 1.14 1.17 1.13 1.08
0.51 0.46 0.46 0.40 0.32 0.30 0.35 0.40 0.41 0.37 0.37 0.35 0.35 0.33 0.29 0.22 0.19 0.17 0.19 0.23 0.31 0.41 0.47 0.56 0.56 0.49 0.57 0.75 0.95 1.13 1.29 1.31 1.32 1.36 1.37 1.38 1.44 1.43 1.33 1.23 1.15 1.07 1.00
0.43 0.42 0.40 0.34 0.21 0.20 0.30 0.33 0.32 0.34 0.34 0.32 0.32 0.30 0.25 0.22 0.16 0.14 0.15 0.16 0.18 0.35 0.52 0.56 0.58 0.56 0.62 0.81 0.97 1.19 1.39 1.47 1.42 1.40 1.24 1.16 1.12 1.11 1.10 1.01 0.92 0.83 0.80
0.41 0.42 0.37 0.31 0.25 0.20 0.24 0.27 0.27 0.29 0.26 0.22 0.24 0.25 0.23 0.23 0.17 0.10 0.11 0.12 0.14 0.26 0.41 0.47 0.53 0.57 0.73 1.04 1.20 1.35 1.49 1.58 1.56 1.39 1.19 1.08 0.94 0.84 0.82 0.85 0.81 0.73 0.66
0.43 0.40 0.39 0.37 0.30 0.23 0.20 0.17 0.18 0.21 0.22 0.21 0.23 0.24 0.24 0.24 0.18 0.13 0.16 0.17 0.18 0.25 0.40 0.52 0.62 0.70 0.89 1.19 1.39 1.56 1.59 1.48 1.30 1.20 1.08 1.00 0.85 0.77 0.75 0.69 0.67 0.64 0.66
0.36 0.31 0.28 0.25 0.24 0.23 0.18 0.10 0.09 0.11 0.10 0.13 0.16 0.16 0.19 0.19 0.12 0.13 0.16 0.16 0.18 0.22 0.35 0.55 0.71 0.84 1.04 1.24 1.40 1.46 1.43 1.32 1.20 1.01 0.91 0.93 0.90 0.81 0.74 0.63 0.56 0.52 0.58
0.30 0.24 0.18 0.15 0.14 0.14 0.19 0.14 0.06 0.04 0.04 0.05 0.06 0.06 0.08 0.10 0.09 0.12 0.14 0.17 0.20 0.26 0.37 0.57 0.69 0.79 0.97 1.18 1.31 1.27 1.18 1.12 1.02 0.89 0.81 0.78 0.78 0.74 0.70 0.59 0.50 0.49 0.56
0.26 0.20 0.12 0.09 0.10 0.11 0.17 0.23 0.20 0.11 0.06 0.06 0.04 0.04 0.05 0.06 0.08 0.11 0.14 0.18 0.21 0.27 0.37 0.55 0.66 0.76 0.92 1.07 1.13 1.11 1.07 0.98 0.89 0.82 0.77 0.70 0.64 0.60 0.54 0.48 0.44 0.46 0.46
0.15 0.09 0.08 0.10 0.09 0.11 0.13 0.15 0.18 0.22 0.24 0.20 0.10 0.05 0.05 0.08 0.10 0.11 0.14 0.19 0.23 0.26 0.40 0.56 0.66 0.72 0.79 0.86 0.93 0.98 1.00 0.92 0.80 0.75 0.74 0.70 0.62 0.55 0.46 0.42 0.40 0.36 0.36
0.09 0.11 0.09 0.08 0.08 0.08 0.09 0.11 0.12 0.15 0.19 0.20 0.17 0.12 0.09 0.11 0.15 0.18 0.20 0.23 0.29 0.35 0.45 0.56 0.62 0.68 0.69 0.70 0.75 0.81 0.84 0.82 0.74 0.69 0.68 0.65 0.59 0.51 0.41 0.33 0.28 0.18 0.21
0.06 0.03 0.04 0.05 0.04 0.05 0.06 0.08 0.09 0.11 0.16 0.19 0.19 0.17 0.16 0.24 0.29 0.31 0.27 0.24 0.29 0.36 0.43 0.50 0.56 0.59 0.57 0.57 0.58 0.62 0.65 0.65 0.62 0.59 0.57 0.54 0.47 0.37 0.31 0.25 0.22 0.21 0.23
0.04 0.02 0.01 0.02 0.04 0.04 0.04 0.05 0.07 0.09 0.14 0.18 0.18 0.14 0.21 0.28 0.34 0.35 0.34 0.32 0.34 0.37 0.40 0.42 0.44 0.46 0.45 0.44 0.44 0.45 0.50 0.53 0.54 0.56 0.53 0.47 0.38 0.30 0.25 0.19 0.16 0.14 0.15
0.01 0.02 0.02 0.02 0.02 0.02 0.02 0.03 0.05 0.07 0.10 0.13 0.15 0.15 0.23 0.27 0.31 0.34 0.37 0.39 0.39 0.39 0.37 0.37 0.37 0.38 0.38 0.37 0.36 0.37 0.40 0.43 0.49 0.53 0.53 0.46 0.35 0.27 0.20 0.15 0.13 0.12 0.11
0.01 0.01 0.01 0.01 0.01 0.01 0.01 0.02 0.04 0.06 0.07 0.09 0.11 0.15 0.20 0.28 0.34 0.38 0.39 0.39 0.39 0.38 0.34 0.31 0.32 0.35 0.34 0.31 0.30 0.32 0.34 0.38 0.43 0.49 0.52 0.46 0.35 0.25 0.18 0.16 0.14 0.13 0.10
0.01 0.01 0.01 0.01 0.01 0.01 0.01 0.02 0.02 0.03 0.05 0.08 0.10 0.14 0.19 0.26 0.33 0.40 0.44 0.42 0.40 0.38 0.35 0.34 0.33 0.33 0.28 0.24 0.22 0.21 0.22 0.26 0.35 0.44 0.46 0.44 0.33 0.23 0.15 0.13 0.12 0.10 0.09
0.01 0.02 0.01 0.01 0.01 0.01 0.02 0.02 0.02 0.03 0.03 0.05 0.07 0.09 0.13 0.17 0.23 0.32 0.40 0.44 0.44 0.44 0.40 0.38 0.38 0.34 0.27 0.20 0.16 0.13 0.18 0.25 0.31 0.36 0.41 0.38 0.27 0.20 0.16 0.14 0.11 0.08 0.07
0.01 0.01 0.01 0.01 0.01 0.01 0.01 0.01 0.01 0.02 0.02 0.02 0.04 0.05 0.07 0.10 0.14 0.20 0.27 0.33 0.38 0.43 0.47 0.50 0.47 0.37 0.27 0.21 0.18 0.19 0.20 0.21 0.22 0.24 0.28 0.29 0.21 0.18 0.17 0.14 0.09 0.06 0.06

GEFSGL_prec_meanprecacc_174.txt.gz
Total_Precipitation_Accumulation
0.87 0.90 0.89 0.91 0.95 0.98 0.94 0.86 0.81 0.77 0.74 0.73 0.68 0.65 0.65 0.66 0.65 0.67 0.63 0.60 0.58 0.58 0.57 0.59 0.64 0.64 0.67 0.69 0.71 0.82 0.98 1.09 1.19 1.03 0.90 0.94 0.98 0.93 0.96 0.94 0.89 0.87 0.97
0.73 0.76 0.77 0.74 0.71 0.72 0.75 0.74 0.69 0.67 0.66 0.65 0.59 0.53 0.51 0.49 0.47 0.45 0.44 0.44 0.46 0.48 0.49 0.52 0.55 0.57 0.59 0.62 0.67 0.75 0.87 1.04 1.21 1.18 1.02 1.02 1.02 1.00 1.06 1.05 0.93 0.82 0.87
0.66 0.67 0.65 0.64 0.60 0.59 0.60 0.59 0.57 0.57 0.57 0.55 0.52 0.49 0.44 0.43 0.40 0.36 0.37 0.38 0.40 0.41 0.45 0.50 0.55 0.63 0.65 0.67 0.72 0.75 0.81 0.90 1.10 1.22 1.14 1.12 1.17 1.19 1.31 1.21 1.05 1.01 0.83
0.63 0.62 0.60 0.62 0.60 0.56 0.53 0.52 0.51 0.51 0.54 0.56 0.55 0.45 0.37 0.33 0.32 0.31 0.30 0.32 0.34 0.37 0.42 0.49 0.56 0.66 0.73 0.75 0.74 0.77 0.82 0.91 1.02 1.18 1.22 1.22 1.26 1.32 1.37 1.35 1.19 1.04 0.92
0.63 0.62 0.63 0.66 0.66 0.64 0.62 0.60 0.58 0.55 0.51 0.49 0.50 0.47 0.41 0.33 0.29 0.28 0.28 0.31 0.37 0.43 0.45 0.47 0.52 0.63 0.72 0.68 0.64 0.67 0.79 0.97 1.04 1.18 1.24 1.22 1.19 1.28 1.29 1.14 1.06 0.97 0.87
0.75 0.74 0.71 0.68 0.65 0.64 0.63 0.61 0.62 0.59 0.55 0.49 0.46 0.46 0.43 0.32 0.32 0.31 0.29 0.34 0.41 0.47 0.50 0.51 0.48 0.51 0.51 0.51 0.57 0.63 0.72 0.93 1.21 1.37 1.32 1.25 1.12 1.10 1.11 1.07 1.07 1.03 0.98
0.90 0.84 0.76 0.68 0.65 0.62 0.55 0.58 0.62 0.59 0.54 0.48 0.44 0.45 0.44 0.37 0.34 0.32 0.31 0.36 0.46 0.52 0.55 0.55 0.45 0.40 0.47 0.52 0.56 0.61 0.72 0.85 1.09 1.42 1.50 1.27 1.17 1.11 1.14 1.16 1.18 1.20 1.11
0.89 0.82 0.71 0.63 0.63 0.63 0.62 0.62 0.60 0.56 0.52 0.52 0.50 0.48 0.45 0.37 0.33 0.33 0.32 0.37 0.48 0.51 0.51 0.52 0.55 0.53 0.50 0.52 0.56 0.66 0.81 0.93 1.02 1.11 1.39 1.22 1.01 0.99 1.03 1.06 1.13 1.16 1.08
0.87 0.74 0.61 0.54 0.55 0.56 0.56 0.54 0.52 0.52 0.50 0.46 0.42 0.43 0.46 0.42 0.36 0.33 0.31 0.38 0.45 0.47 0.46 0.45 0.44 0.46 0.50 0.61 0.73 0.94 1.07 1.18 1.14 1.28 1.42 1.36 1.22 1.12 0.98 0.97 1.15 1.19 1.13
0.68 0.58 0.53 0.50 0.46 0.43 0.42 0.46 0.47 0.48 0.45 0.38 0.36 0.38 0.39 0.37 0.27 0.24 0.26 0.33 0.41 0.44 0.48 0.50 0.44 0.41 0.52 0.68 0.91 1.17 1.29 1.36 1.23 1.32 1.55 1.58 1.41 1.37 1.31 1.17 1.22 1.20 1.13
0.54 0.49 0.49 0.42 0.34 0.31 0.35 0.41 0.42 0.38 0.37 0.36 0.37 0.34 0.30 0.23 0.20 0.18 0.19 0.23 0.32 0.41 0.48 0.56 0.56 0.50 0.57 0.77 0.97 1.15 1.31 1.33 1.33 1.38 1.39 1.40 1.46 1.46 1.37 1.26 1.18 1.12 1.07
0.47 0.46 0.44 0.37 0.23 0.21 0.30 0.34 0.33 0.36 0.35 0.32 0.33 0.31 0.26 0.23 0.16 0.15 0.16 0.16 0.19 0.35 0.52 0.56 0.58 0.57 0.62 0.82 0.98 1.21 1.42 1.48 1.43 1.41 1.26 1.18 1.14 1.13 1.13 1.04 0.94 0.85 0.82
0.43 0.44 0.39 0.33 0.27 0.21 0.25 0.28 0.28 0.30 0.26 0.23 0.24 0.26 0.23 0.24 0.18 0.11 0.12 0.13 0.15 0.26 0.41 0.47 0.53 0.57 0.74 1.04 1.21 1.36 1.52 1.60 1.58 1.41 1.21 1.10 0.96 0.87 0.85 0.87 0.83 0.76 0.69
0.45 0.42 0.39 0.37 0.31 0.23 0.21 0.17 0.19 0.22 0.23 0.22 0.23 0.25 0.24 0.24 0.18 0.14 0.16 0.18 0.19 0.26 0.40 0.52 0.62 0.70 0.90 1.21 1.40 1.57 1.61 1.50 1.31 1.22 1.10 1.02 0.87 0.78 0.78 0.71 0.68 0.66 0.68
0.38 0.32 0.29 0.26 0.25 0.24 0.19 0.11 0.10 0.11 0.10 0.14 0.16 0.16 0.19 0.19 0.12 0.14 0.16 0.16 0.18 0.22 0.36 0.55 0.72 0.85 1.05 1.27 1.43 1.47 1.44 1.33 1.21 1.02 0.92 0.94 0.91 0.81 0.75 0.64 0.57 0.53 0.60
0.31 0.25 0.20 0.17 0.16 0.16 0.20 0.15 0.06 0.04 0.04 0.05 0.06 0.06 0.08 0.10 0.09 0.12 0.14 0.17 0.21 0.26 0.37 0.57 0.70 0.80 0.99 1.20 1.33 1.30 1.19 1.12 1.02 0.89 0.82 0.79 0.78 0.74 0.70 0.60 0.50 0.50 0.56
0.28 0.21 0.14 0.11 0.11 0.12 0.18 0.24 0.20 0.11 0.06 0.06 0.04 0.04 0.05 0.07 0.08 0.12 0.14 0.19 0.22 0.28 0.38 0.56 0.67 0.77 0.94 1.08 1.13 1.12 1.08 0.99 0.89 0.82 0.77 0.70 0.64 0.60 0.55 0.49 0.45 0.47 0.47
0.16 0.10 0.09 0.11 0.10 0.11 0.14 0.15 0.18 0.22 0.24 0.20 0.10 0.05 0.06 0.08 0.10 0.11 0.15 0.19 0.24 0.28 0.41 0.57 0.68 0.73 0.80 0.87 0.93 0.98 1.00 0.92 0.81 0.75 0.74 0.70 0.63 0.55 0.47 0.43 0.42 0.39 0.38
0.09 0.11 0.10 0.09 0.09 0.08 0.10 0.11 0.12 0.16 0.19 0.21 0.18 0.12 0.09 0.12 0.15 0.18 0.20 0.24 0.30 0.37 0.46 0.57 0.63 0.68 0.70 0.70 0.75 0.81 0.84 0.82 0.75 0.70 0.68 0.66 0.59 0.52 0.43 0.35 0.31 0.21 0.24
0.07 0.04 0.05 0.06 0.05 0.05 0.07 0.09 0.09 0.12 0.16 0.19 0.20 0.17 0.17 0.24 0.30 0.31 0.28 0.25 0.29 0.37 0.44 0.51 0.56 0.60 0.58 0.57 0.59 0.63 0.65 0.66 0.62 0.59 0.57 0.55 0.48 0.38 0.33 0.28 0.25 0.23 0.25
0.05 0.02 0.01 0.03 0.04 0.04 0.04 0.05 0.07 0.09 0.14 0.19 0.18 0.15 0.22 0.30 0.35 0.36 0.35 0.33 0.34 0.38 0.41 0.42 0.45 0.47 0.46 0.45 0.45 0.47 0.50 0.54 0.55 0.56 0.53 0.47 0.38 0.32 0.27 0.23 0.18 0.16 0.16
0.02 0.02 0.02 0.02 0.02 0.02 0.02 0.03 0.06 0.08 0.10 0.13 0.16 0.17 0.25 0.28 0.32 0.35 0.38 0.39 0.39 0.39 0.37 0.37 0.38 0.38 0.38 0.38 0.37 0.37 0.40 0.43 0.49 0.53 0.53 0.47 0.36 0.29 0.23 0.18 0.15 0.13 0.13
0.01 0.01 0.01 0.01 0.01 0.01 0.01 0.03 0.04 0.06 0.08 0.10 0.12 0.16 0.22 0.29 0.35 0.39 0.40 0.40 0.39 0.38 0.34 0.31 0.33 0.36 0.35 0.32 0.31 0.33 0.35 0.39 0.45 0.51 0.55 0.48 0.36 0.27 0.20 0.17 0.15 0.14 0.10
0.01 0.01 0.01 0.01 0.01 0.01 0.02 0.02 0.03 0.03 0.05 0.08 0.11 0.14 0.19 0.27 0.34 0.41 0.45 0.42 0.40 0.39 0.36 0.34 0.34 0.33 0.29 0.25 0.23 0.22 0.23 0.28 0.37 0.46 0.48 0.46 0.35 0.25 0.17 0.15 0.13 0.11 0.10
0.01 0.02 0.02 0.01 0.01 0.02 0.02 0.02 0.02 0.03 0.03 0.05 0.07 0.09 0.13 0.17 0.23 0.32 0.40 0.45 0.44 0.44 0.41 0.39 0.38 0.34 0.28 0.21 0.16 0.14 0.19 0.26 0.32 0.37 0.42 0.39 0.29 0.22 0.18 0.16 0.12 0.09 0.08
0.01 0.01 0.01 0.01 0.01 0.01 0.01 0.02 0.02 0.02 0.02 0.03 0.04 0.05 0.07 0.10 0.14 0.20 0.27 0.34 0.39 0.44 0.48 0.50 0.48 0.37 0.28 0.22 0.19 0.20 0.21 0.21 0.23 0.26 0.30 0.31 0.23 0.20 0.19 0.16 0.10 0.08 0.08

GEFSGL_prec_meanprecacc_180.txt.gz
Total_Precipitation_Accumulation
0.91 0.93 0.92 0.93 0.97 1.00 0.97 0.90 0.85 0.80 0.77 0.75 0.71 0.68 0.68 0.69 0.68 0.70 0.67 0.65 0.63 0.61 0.61 0.63 0.67 0.69 0.73 0.75 0.78 0.91 1.09 1.21 1.28 1.09 0.95 0.97 1.01 1.00 1.05 1.00 0.92 0.89 1.00
0.75 0.79 0.80 0.77 0.74 0.75 0.79 0.79 0.73 0.71 0.70 0.68 0.62 0.57 0.54 0.52 0.50 0.48 0.47 0.50 0.51 0.51 0.52 0.56 0.58 0.60 0.62 0.67 0.72 0.80 0.95 1.13 1.31 1.28 1.08 1.06 1.06 1.05 1.12 1.11 0.97 0.84 0.90
0.68 0.68 0.67 0.66 0.63 0.62 0.64 0.64 0.62 0.62 0.62 0.58 0.54 0.52 0.46 0.45 0.42 0.39 0.40 0.43 0.43 0.44 0.48 0.53 0.57 0.65 0.68 0.69 0.75 0.79 0.88 1.00 1.21 1.32 1.23 1.19 1.21 1.22 1.33 1.24 1.08 1.03 0.85
0.63 0.63 0.62 0.64 0.62 0.58 0.55 0.53 0.53 0.54 0.56 0.58 0.57 0.48 0.39 0.35 0.34 0.32 0.33 0.35 0.36 0.38 0.43 0.51 0.57 0.68 0.75 0.78 0.77 0.80 0.86 0.96 1.10 1.27 1.30 1.29 1.32 1.35 1.40 1.38 1.22 1.08 0.95
0.64 0.63 0.66 0.70 0.69 0.66 0.64 0.62 0.60 0.57 0.52 0.51 0.52 0.50 0.43 0.35 0.31 0.30 0.30 0.33 0.39 0.44 0.47 0.49 0.53 0.64 0.73 0.70 0.66 0.69 0.81 1.00 1.08 1.23 1.30 1.29 1.25 1.34 1.33 1.18 1.10 1.01 0.90
0.76 0.75 0.74 0.74 0.70 0.68 0.65 0.64 0.64 0.61 0.56 0.50 0.49 0.48 0.45 0.34 0.33 0.33 0.30 0.36 0.43 0.48 0.51 0.52 0.50 0.52 0.51 0.52 0.58 0.64 0.74 0.95 1.24 1.42 1.38 1.31 1.18 1.16 1.17 1.12 1.11 1.08 1.03
0.92 0.85 0.78 0.72 0.68 0.65 0.58 0.61 0.64 0.61 0.55 0.49 0.45 0.47 0.45 0.38 0.35 0.32 0.32 0.37 0.47 0.53 0.56 0.56 0.46 0.40 0.48 0.53 0.57 0.62 0.73 0.87 1.13 1.46 1.55 1.32 1.23 1.18 1.21 1.21 1.23 1.26 1.15
0.91 0.83 0.72 0.64 0.64 0.64 0.64 0.64 0.61 0.57 0.53 0.53 0.51 0.50 0.46 0.38 0.35 0.34 0.33 0.38 0.49 0.51 0.52 0.53 0.56 0.54 0.50 0.52 0.57 0.68 0.82 0.95 1.05 1.14 1.43 1.27 1.06 1.04 1.09 1.12 1.19 1.21 1.12
0.88 0.74 0.62 0.56 0.56 0.57 0.58 0.56 0.54 0.54 0.52 0.47 0.43 0.44 0.46 0.44 0.38 0.35 0.33 0.40 0.47 0.48 0.46 0.45 0.45 0.48 0.51 0.61 0.75 0.96 1.08 1.20 1.16 1.30 1.45 1.40 1.25 1.15 1.02 1.02 1.20 1.23 1.18
0.68 0.58 0.53 0.51 0.48 0.45 0.44 0.47 0.48 0.49 0.46 0.39 0.36 0.38 0.40 0.38 0.28 0.26 0.28 0.35 0.42 0.46 0.49 0.50 0.45 0.42 0.52 0.68 0.92 1.19 1.31 1.38 1.24 1.34 1.57 1.61 1.43 1.38 1.33 1.20 1.26 1.25 1.18
0.55 0.50 0.50 0.44 0.36 0.32 0.36 0.42 0.43 0.39 0.38 0.37 0.37 0.35 0.31 0.24 0.21 0.19 0.20 0.24 0.32 0.42 0.49 0.57 0.56 0.50 0.58 0.77 0.97 1.16 1.32 1.34 1.36 1.40 1.41 1.43 1.49 1.48 1.40 1.29 1.22 1.17 1.13
0.48 0.47 0.45 0.38 0.24 0.22 0.31 0.35 0.34 0.36 0.35 0.33 0.33 0.31 0.26 0.23 0.17 0.15 0.16 0.16 0.19 0.36 0.53 0.56 0.58 0.57 0.62 0.82 0.98 1.22 1.42 1.49 1.45 1.44 1.28 1.22 1.17 1.17 1.17 1.08 0.98 0.89 0.87
0.44 0.45 0.40 0.34 0.28 0.22 0.26 0.29 0.29 0.30 0.27 0.23 0.25 0.26 0.24 0.24 0.19 0.11 0.12 0.13 0.15 0.27 0.41 0.48 0.53 0.57 0.74 1.04 1.21 1.37 1.53 1.61 1.60 1.44 1.24 1.14 0.99 0.90 0.89 0.91 0.87 0.78 0.71
0.47 0.43 0.40 0.39 0.33 0.25 0.22 0.18 0.19 0.23 0.24 0.23 0.24 0.25 0.25 0.24 0.19 0.15 0.17 0.19 0.19 0.26 0.40 0.53 0.63 0.70 0.90 1.21 1.40 1.57 1.61 1.51 1.34 1.25 1.13 1.05 0.89 0.81 0.81 0.74 0.71 0.68 0.70
0.40 0.33 0.30 0.27 0.27 0.27 0.21 0.12 0.10 0.12 0.11 0.15 0.17 0.17 0.19 0.19 0.13 0.14 0.17 0.18 0.19 0.23 0.36 0.56 0.72 0.85 1.06 1.27 1.44 1.48 1.45 1.34 1.23 1.04 0.94 0.96 0.93 0.84 0.77 0.65 0.59 0.56 0.62
0.33 0.27 0.22 0.18 0.17 0.17 0.22 0.16 0.07 0.04 0.04 0.05 0.06 0.07 0.08 0.10 0.09 0.12 0.15 0.18 0.21 0.27 0.38 0.58 0.71 0.81 1.00 1.20 1.34 1.31 1.20 1.13 1.03 0.90 0.83 0.79 0.79 0.75 0.71 0.60 0.51 0.51 0.58
0.30 0.24 0.17 0.15 0.15 0.14 0.19 0.25 0.21 0.12 0.06 0.06 0.05 0.05 0.05 0.07 0.09 0.12 0.15 0.20 0.23 0.29 0.39 0.57 0.68 0.78 0.95 1.09 1.14 1.13 1.09 0.99 0.89 0.82 0.78 0.71 0.65 0.61 0.55 0.49 0.45 0.49 0.49
0.17 0.12 0.11 0.14 0.13 0.14 0.15 0.16 0.19 0.22 0.24 0.21 0.11 0.06 0.06 0.08 0.10 0.11 0.15 0.20 0.25 0.29 0.43 0.59 0.70 0.75 0.81 0.88 0.94 1.00 1.01 0.93 0.81 0.76 0.75 0.71 0.64 0.56 0.48 0.44 0.43 0.40 0.40
0.10 0.11 0.11 0.11 0.11 0.10 0.11 0.12 0.13 0.16 0.19 0.21 0.18 0.13 0.10 0.12 0.15 0.18 0.21 0.25 0.32 0.38 0.47 0.58 0.65 0.70 0.72 0.71 0.76 0.82 0.85 0.83 0.75 0.70 0.68 0.66 0.60 0.53 0.44 0.37 0.32 0.23 0.26
0.08 0.05 0.06 0.06 0.05 0.06 0.08 0.09 0.10 0.12 0.16 0.19 0.20 0.18 0.17 0.25 0.30 0.32 0.28 0.26 0.30 0.38 0.45 0.52 0.57 0.61 0.59 0.59 0.60 0.63 0.66 0.67 0.64 0.61 0.59 0.56 0.49 0.40 0.35 0.30 0.27 0.25 0.27
0.05 0.02 0.02 0.03 0.04 0.05 0.04 0.05 0.07 0.09 0.14 0.19 0.18 0.15 0.23 0.30 0.35 0.36 0.35 0.33 0.35 0.38 0.42 0.43 0.45 0.48 0.47 0.46 0.46 0.48 0.51 0.54 0.56 0.57 0.54 0.49 0.40 0.34 0.29 0.24 0.19 0.17 0.17
0.02 0.02 0.02 0.03 0.03 0.02 0.02 0.03 0.06 0.08 0.10 0.13 0.16 0.17 0.25 0.28 0.32 0.36 0.39 0.40 0.40 0.40 0.39 0.38 0.39 0.39 0.40 0.39 0.38 0.38 0.41 0.44 0.50 0.54 0.54 0.48 0.38 0.31 0.25 0.20 0.16 0.15 0.14
0.02 0.01 0.01 0.02 0.01 0.01 0.01 0.03 0.05 0.06 0.08 0.10 0.12 0.17 0.22 0.29 0.35 0.39 0.41 0.41 0.40 0.39 0.35 0.32 0.34 0.37 0.36 0.33 0.32 0.34 0.36 0.40 0.45 0.52 0.56 0.50 0.39 0.30 0.23 0.20 0.18 0.17 0.13
0.01 0.01 0.01 0.01 0.01 0.01 0.02 0.02 0.03 0.04 0.06 0.08 0.11 0.15 0.19 0.27 0.34 0.41 0.45 0.43 0.41 0.39 0.37 0.35 0.35 0.34 0.31 0.27 0.25 0.24 0.25 0.30 0.38 0.47 0.49 0.47 0.36 0.26 0.19 0.17 0.16 0.14 0.13
0.01 0.02 0.02 0.01 0.01 0.02 0.02 0.02 0.03 0.03 0.04 0.05 0.08 0.10 0.13 0.18 0.24 0.32 0.41 0.45 0.45 0.45 0.42 0.39 0.39 0.35 0.29 0.22 0.18 0.16 0.21 0.28 0.34 0.39 0.44 0.41 0.30 0.24 0.20 0.18 0.15 0.12 0.12
0.01 0.01 0.01 0.01 0.01 0.01 0.02 0.02 0.02 0.02 0.03 0.03 0.05 0.05 0.07 0.10 0.15 0.20 0.28 0.34 0.40 0.45 0.49 0.51 0.49 0.38 0.29 0.23 0.20 0.22 0.23 0.24 0.26 0.29 0.33 0.34 0.26 0.23 0.22 0.19 0.14 0.12 0.12

GEFSGL_prec_meanprecacc_186.txt.gz
Total_Precipitation_Accumulation
0.98 0.99 0.97 0.98 1.01 1.03 1.01 0.93 0.89 0.84 0.80 0.79 0.74 0.71 0.71 0.73 0.73 0.75 0.72 0.70 0.68 0.66 0.66 0.69 0.74 0.76 0.80 0.83 0.86 1.00 1.17 1.29 1.36 1.15 1.01 1.06 1.13 1.09 1.12 1.05 0.95 0.92 1.02
0.83 0.86 0.85 0.81 0.77 0.78 0.81 0.81 0.76 0.74 0.73 0.72 0.66 0.61 0.57 0.55 0.55 0.54 0.53 0.56 0.58 0.57 0.60 0.65 0.66 0.67 0.69 0.74 0.81 0.88 1.02 1.20 1.37 1.33 1.14 1.14 1.15 1.12 1.18 1.16 1.00 0.87 0.91
0.74 0.74 0.72 0.70 0.66 0.65 0.66 0.66 0.64 0.64 0.64 0.60 0.57 0.55 0.49 0.49 0.46 0.44 0.46 0.51 0.52 0.51 0.55 0.61 0.66 0.73 0.73 0.75 0.81 0.83 0.92 1.05 1.27 1.37 1.28 1.24 1.28 1.27 1.37 1.27 1.11 1.07 0.87
0.68 0.68 0.67 0.69 0.66 0.61 0.57 0.56 0.56 0.56 0.58 0.60 0.60 0.50 0.42 0.37 0.37 0.36 0.36 0.40 0.41 0.43 0.50 0.57 0.62 0.72 0.78 0.81 0.81 0.83 0.88 1.00 1.15 1.32 1.34 1.34 1.39 1.42 1.45 1.42 1.26 1.11 0.98
0.68 0.67 0.71 0.73 0.72 0.69 0.67 0.64 0.62 0.59 0.54 0.53 0.54 0.52 0.45 0.37 0.33 0.32 0.32 0.35 0.42 0.47 0.50 0.52 0.56 0.65 0.73 0.71 0.68 0.71 0.84 1.03 1.11 1.27 1.34 1.33 1.31 1.42 1.41 1.24 1.15 1.06 0.95
0.79 0.78 0.78 0.77 0.73 0.70 0.67 0.65 0.65 0.63 0.58 0.52 0.51 0.50 0.46 0.35 0.35 0.35 0.33 0.38 0.46 0.51 0.54 0.54 0.51 0.53 0.52 0.53 0.59 0.66 0.76 0.97 1.27 1.46 1.42 1.34 1.21 1.20 1.22 1.17 1.17 1.14 1.10
0.95 0.88 0.82 0.75 0.71 0.66 0.59 0.62 0.66 0.62 0.57 0.51 0.47 0.48 0.47 0.40 0.36 0.34 0.34 0.39 0.50 0.56 0.59 0.59 0.48 0.42 0.49 0.55 0.59 0.65 0.76 0.90 1.15 1.48 1.58 1.36 1.26 1.22 1.26 1.26 1.29 1.33 1.22
0.94 0.86 0.76 0.66 0.65 0.66 0.65 0.66 0.63 0.59 0.55 0.55 0.54 0.52 0.48 0.39 0.36 0.35 0.34 0.40 0.51 0.54 0.55 0.57 0.59 0.56 0.52 0.55 0.60 0.72 0.87 0.99 1.07 1.16 1.46 1.30 1.09 1.07 1.14 1.17 1.25 1.28 1.19
0.92 0.77 0.65 0.58 0.58 0.58 0.59 0.58 0.56 0.56 0.54 0.49 0.47 0.48 0.49 0.46 0.40 0.36 0.34 0.42 0.49 0.50 0.48 0.47 0.46 0.49 0.52 0.63 0.78 1.01 1.14 1.25 1.19 1.32 1.49 1.43 1.27 1.17 1.05 1.06 1.26 1.30 1.26
0.70 0.60 0.56 0.54 0.50 0.46 0.46 0.48 0.49 0.51 0.48 0.41 0.39 0.42 0.43 0.41 0.32 0.29 0.31 0.38 0.45 0.48 0.51 0.52 0.46 0.43 0.53 0.69 0.94 1.22 1.35 1.42 1.29 1.38 1.61 1.64 1.47 1.42 1.37 1.24 1.31 1.31 1.26
0.57 0.52 0.52 0.46 0.38 0.34 0.38 0.43 0.44 0.41 0.40 0.39 0.39 0.37 0.33 0.26 0.22 0.21 0.22 0.26 0.35 0.45 0.52 0.59 0.58 0.51 0.58 0.77 0.98 1.17 1.33 1.36 1.39 1.45 1.46 1.48 1.53 1.52 1.44 1.34 1.27 1.23 1.19
0.50 0.49 0.48 0.42 0.26 0.23 0.33 0.37 0.36 0.39 0.38 0.35 0.34 0.32 0.27 0.25 0.18 0.16 0.17 0.17 0.20 0.36 0.54 0.58 0.59 0.57 0.63 0.83 0.99 1.22 1.43 1.50 1.47 1.47 1.32 1.25 1.20 1.20 1.20 1.11 1.02 0.94 0.92
0.48 0.49 0.44 0.37 0.30 0.23 0.27 0.31 0.32 0.33 0.30 0.25 0.26 0.27 0.24 0.25 0.20 0.12 0.13 0.14 0.16 0.27 0.42 0.48 0.53 0.58 0.74 1.05 1.21 1.37 1.53 1.62 1.62 1.47 1.28 1.17 1.01 0.93 0.92 0.95 0.90 0.82 0.74
0.51 0.47 0.44 0.41 0.34 0.27 0.25 0.21 0.22 0.25 0.26 0.24 0.24 0.26 0.25 0.25 0.20 0.16 0.18 0.19 0.20 0.27 0.41 0.53 0.63 0.71 0.91 1.22 1.41 1.58 1.62 1.52 1.35 1.27 1.16 1.07 0.91 0.83 0.83 0.77 0.74 0.71 0.72
0.46 0.38 0.33 0.30 0.28 0.29 0.23 0.14 0.12 0.13 0.13 0.16 0.18 0.18 0.20 0.19 0.13 0.15 0.17 0.18 0.20 0.24 0.37 0.56 0.73 0.87 1.08 1.30 1.46 1.50 1.47 1.37 1.25 1.06 0.96 0.98 0.95 0.86 0.78 0.66 0.61 0.59 0.66
0.39 0.32 0.25 0.21 0.20 0.19 0.23 0.17 0.08 0.05 0.05 0.06 0.07 0.07 0.09 0.10 0.09 0.12 0.15 0.18 0.21 0.27 0.38 0.59 0.72 0.83 1.02 1.23 1.37 1.34 1.23 1.15 1.06 0.93 0.85 0.82 0.81 0.77 0.72 0.63 0.54 0.55 0.62
0.33 0.27 0.20 0.17 0.17 0.16 0.20 0.26 0.22 0.13 0.07 0.06 0.05 0.05 0.06 0.07 0.09 0.12 0.15 0.20 0.23 0.29 0.39 0.58 0.69 0.79 0.97 1.11 1.17 1.16 1.12 1.02 0.92 0.86 0.81 0.73 0.67 0.63 0.57 0.51 0.48 0.51 0.52
0.19 0.13 0.13 0.16 0.16 0.17 0.17 0.17 0.19 0.23 0.25 0.21 0.11 0.06 0.06 0.08 0.10 0.11 0.15 0.20 0.26 0.30 0.44 0.60 0.71 0.76 0.84 0.90 0.97 1.03 1.03 0.95 0.84 0.78 0.78 0.73 0.66 0.58 0.50 0.46 0.46 0.42 0.42
0.12 0.13 0.12 0.13 0.14 0.14 0.14 0.14 0.15 0.17 0.20 0.22 0.19 0.13 0.10 0.12 0.15 0.18 0.21 0.25 0.33 0.40 0.48 0.59 0.66 0.71 0.73 0.73 0.77 0.83 0.87 0.85 0.77 0.72 0.70 0.68 0.62 0.55 0.46 0.39 0.35 0.26 0.29
0.09 0.06 0.06 0.08 0.07 0.08 0.09 0.10 0.11 0.13 0.17 0.20 0.21 0.18 0.17 0.25 0.30 0.32 0.28 0.26 0.31 0.39 0.46 0.53 0.58 0.62 0.60 0.60 0.62 0.65 0.68 0.68 0.65 0.62 0.60 0.58 0.51 0.42 0.37 0.33 0.29 0.28 0.29
0.06 0.03 0.02 0.03 0.04 0.05 0.05 0.06 0.08 0.10 0.15 0.19 0.19 0.16 0.23 0.30 0.35 0.36 0.35 0.34 0.35 0.39 0.43 0.44 0.47 0.49 0.48 0.47 0.47 0.49 0.52 0.56 0.57 0.59 0.55 0.50 0.41 0.35 0.30 0.26 0.21 0.19 0.19
0.03 0.02 0.02 0.03 0.03 0.02 0.02 0.04 0.06 0.08 0.11 0.14 0.16 0.17 0.26 0.29 0.33 0.36 0.39 0.41 0.41 0.41 0.40 0.39 0.40 0.40 0.41 0.40 0.40 0.40 0.43 0.46 0.51 0.55 0.56 0.50 0.40 0.33 0.26 0.21 0.18 0.16 0.16
0.02 0.01 0.01 0.02 0.02 0.01 0.01 0.03 0.05 0.07 0.09 0.10 0.13 0.17 0.23 0.31 0.37 0.40 0.42 0.41 0.41 0.40 0.36 0.34 0.35 0.38 0.37 0.35 0.34 0.37 0.40 0.43 0.48 0.55 0.58 0.52 0.41 0.32 0.25 0.23 0.21 0.19 0.16
0.01 0.01 0.01 0.02 0.02 0.01 0.02 0.03 0.04 0.05 0.07 0.09 0.12 0.16 0.20 0.28 0.35 0.43 0.47 0.44 0.42 0.41 0.38 0.37 0.36 0.36 0.32 0.28 0.27 0.26 0.28 0.34 0.42 0.50 0.52 0.50 0.39 0.29 0.21 0.19 0.19 0.17 0.17
0.01 0.02 0.02 0.01 0.01 0.02 0.02 0.03 0.04 0.05 0.05 0.06 0.08 0.11 0.14 0.19 0.25 0.34 0.43 0.47 0.47 0.47 0.43 0.41 0.41 0.37 0.31 0.24 0.20 0.18 0.24 0.32 0.39 0.43 0.47 0.43 0.33 0.26 0.22 0.20 0.18 0.15 0.15
0.01 0.01 0.01 0.01 0.01 0.01 0.02 0.03 0.03 0.03 0.04 0.04 0.06 0.07 0.09 0.12 0.17 0.22 0.29 0.36 0.41 0.46 0.50 0.52 0.50 0.40 0.31 0.25 0.23 0.24 0.26 0.26 0.29 0.32 0.35 0.35 0.27 0.25 0.24 0.21 0.16 0.14 0.15